Location: Geroldsau
(48.7259°N, 8.2466°E)
Time: 09:16:52
(UTC+00:00)

NOSS 2-2 (D) - Pass Details

Date: 20 June 2021
Orbit: 453 x 1754 km, 63.3° (Epoch: 01 August)

Event Time Altitude Azimuth Distance (km) Brightness Sun altitude
Exits shadow 01:31:04 22° 202° (SSW) 1,027 4.1 -12.8°
Maximum altitude 01:33:03 62° 127° (SE) 530 3.2 -12.7°
Drops below altitude 10° 01:36:44 10° 47° (NE) 1,740 7.2 -12.4°
Sets 01:39:06 0° 44° (NE) 2,751 8.6 -12.2°
